This demonstration page uses our WeatherBlox Daily Observations layout. Learn more.

Hourly Observations for May 4, 2016

Temp ( °F °C ) Dew Point ( °F °C ) Humidity (%) Winds ( mph kmh ) Pressure ( in mb ) Visibility ( mi km ) Precip ( " mm )
12:15 am 00:15 Clear 53 11.6 41 5.1 65 65 WNW 6 9 30.03 1017 10 16.0934 0 0
12:35 am 00:35 Clear 54 12.1 40 4.6 60 60 WNW 7 11 30.03 1017 10 16.0934 0 0
12:55 am 00:55 Clear 53 11.8 40 4.6 62 62 WNW 7 11 30.03 1017 10 16.0934 0 0
1:15 am 01:15 Clear 52 11.2 40 4.6 64 64 WNW 6 9 30.03 1017 10 16.0934 0 0
1:35 am 01:35 Clear 51 10.8 40 4.6 66 66 WNW 7 11 30.03 1017 10 16.0934 0 0
1:55 am 01:55 Clear 51 10.8 40 4.5 65 65 WNW 6 9 30 1016 10 16.0934 0 0
2:15 am 02:15 Clear 51 10.7 40 4.5 66 66 WNW 6 9 30.03 1017 10 16.0934 0 0
2:35 am 02:35 Clear 50 10.2 40 4.5 68 68 WNW 6 9 30.03 1017 10 16.0934 0 0
2:55 am 02:55 Clear 49 9.5 40 4.5 71 71 WNW 3 6 30.03 1017 10 16.0934 0 0
3:15 am 03:15 Clear 49 9.4 40 4.5 72 72 NNW 8 13 30.06 1018 10 16.0934 0 0
3:35 am 03:35 Clear 51 10.5 40 4.4 66 66 NW 9 15 30.03 1017 10 16.0934 0 0
3:55 am 03:55 Clear 50 10.1 40 4.5 68 68 NNW 9 15 30.03 1017 10 16.0934 0 0
4:15 am 04:15 Clear 50 9.8 40 4.5 70 70 NW 6 9 30.03 1017 10 16.0934 0 0
4:35 am 04:35 Clear 48 9.1 40 4.6 74 74 NNW 7 11 30.09 1019 10 16.0934 0 0
4:55 am 04:55 Clear 47 8.6 40 4.6 76 76 NNW 8 13 30.09 1019 10 16.0934 0 0
5:15 am 05:15 Clear 48 9 40 4.5 74 74 NNW 8 13 30.09 1019 10 16.0934 0 0
5:35 am 05:35 Clear 47 8.6 40 4.5 76 76 N 7 11 30.09 1019 10 16.0934 0 0
5:55 am 05:55 Clear 46 8 40 4.6 79 79 NNW 7 11 30.09 1019 10 16.0934 0 0
6:15 am 06:15 Clear 44 6.9 40 4.5 85 85 WNW 5 7 30.09 1019 10 16.0934 0 0
6:35 am 06:35 Sunny 44 6.5 40 4.3 86 86 NW 7 11 30.09 1019 10 16.0934 0 0
6:55 am 06:55 Sunny 44 6.8 40 4.3 84 84 NW 6 9 30.12 1020 10 16.0934 0 0
7:15 am 07:15 Sunny 45 7.2 41 4.8 85 85 NW 6 9 30.12 1020 10 16.0934 0 0
7:35 am 07:35 Sunny 47 8.6 41 5 78 78 NW 7 11 30.12 1020 10 16.0934 0 0
7:55 am 07:55 Sunny 49 9.5 41 5 74 74 NNW 8 13 30.15 1021 10 16.0934 0 0
8:15 am 08:15 Sunny 51 10.6 41 4.9 68 68 NNW 7 11 30.12 1020 10 16.0934 0 0
8:35 am 08:35 Sunny 53 11.5 41 4.8 64 64 NNW 7 11 30.12 1020 10 16.0934 0 0
8:55 am 08:55 Sunny 54 12.2 40 4.3 59 59 NNW 9 15 30.12 1020 10 16.0934 0 0
9:15 am 09:15 Sunny 55 13 40 4.2 55 55 N 8 13 30.12 1020 10 16.0934 0 0
9:35 am 09:35 Sunny 56 13.5 38 3.4 51 51 N 7 11 30.12 1020 10 16.0934 0 0
9:55 am 09:55 Sunny 57 14.1 39 3.8 50 50 N 10 17 30.09 1019 10 16.0934 0 0
10:15 am 10:15 Sunny 58 14.7 39 4 49 49 N 8 13 30.09 1019 10 16.0934 0 0
10:35 am 10:35 Sunny 60 15.6 38 3.1 43 43 N 10 17 30.09 1019 10 16.0934 0 0
10:55 am 10:55 Sunny 61 16.2 37 2.6 40 40 N 12 19 30.09 1019 10 16.0934 0 0
11:15 am 11:15 Sunny 62 16.5 34 0.9 35 35 N 8 13 30.09 1019 10 16.0934 0 0
11:35 am 11:35 Sunny 63 17.1 35 1.5 35 35 N 8 13 30.09 1019 10 16.0934 0 0
11:55 am 11:55 Sunny 64 17.7 34 1 33 33 N 13 20 30.06 1018 10 16.0934 0 0
12:15 pm 12:15 Sunny 65 18.3 33 0.7 31 31 N 10 17 30.06 1018 10 16.0934 0 0
12:35 pm 12:35 Sunny 66 18.7 34 1 31 31 N 10 17 30.06 1018 10 16.0934 0 0
12:55 pm 12:55 Sunny 66 19.1 33 0.3 28 28 N 10 17 30.06 1018 10 16.0934 0 0
1:15 pm 13:15 Sunny 67 19.6 33 0.7 28 28 N 13 20 30.06 1018 10 16.0934 0 0
1:35 pm 13:35 Sunny 68 19.8 32 0.1 27 27 N 14 22 30.06 1018 10 16.0934 0 0
1:55 pm 13:55 Sunny 68 20.1 33 0.3 27 27 N 10 17 30.06 1018 10 16.0934 0 0
2:15 pm 14:15 Sunny 69 20.8 34 1 27 27 N 13 20 30.03 1017 10 16.0934 0 0
2:35 pm 14:35 Sunny 69 20.5 34 0.9 27 27 NNW 12 19 30.06 1018 10 16.0934 0 0
2:55 pm 14:55 Sunny 69 20.7 33 0.8 27 27 N 6 9 30.03 1017 10 16.0934 0 0
3:15 pm 15:15 Sunny 70 21.1 35 1.9 28 28 NNW 9 15 30 1016 10 16.0934 0 0
3:35 pm 15:35 Sunny 70 21.3 36 2.1 28 28 NNE 10 17 30 1016 10 16.0934 0 0
3:55 pm 15:55 Sunny 71 21.4 34 0.9 26 26 N 14 22 30 1016 10 16.0934 0 0
4:15 pm 16:15 Sunny 71 21.6 35 1.8 27 27 N 15 24 30 1016 10 16.0934 0 0
4:35 pm 16:35 Sunny 71 21.5 34 1 26 26 NNE 9 15 30 1016 10 16.0934 0 0
4:55 pm 16:55 Sunny 72 22 34 0.9 25 25 N 10 17 30 1016 10 16.0934 0 0
5:15 pm 17:15 Sunny 71 21.8 33 0.8 25 25 NNE 10 17 29.97 1015 10 16.0934 0 0
5:35 pm 17:35 Sunny 71 21.9 33 0.8 25 25 N 12 19 29.97 1015 10 16.0934 0 0
5:55 pm 17:55 Sunny 71 21.6 33 0.5 25 25 N 9 15 29.97 1015 10 16.0934 0 0
6:15 pm 18:15 Sunny 71 21.5 33 0.4 25 25 N 9 15 29.97 1015 10 16.0934 0 0
6:35 pm 18:35 Sunny 71 21.5 33 0.5 25 25 N 7 11 29.97 1015 10 16.0934 0 0
6:55 pm 18:55 Sunny 70 21.1 33 0.8 26 26 N 7 11 29.97 1015 10 16.0934 0 0
7:15 pm 19:15 Sunny 69 20.5 35 1.6 29 29 NNE 6 9 29.97 1015 10 16.0934 0 0
7:35 pm 19:35 Sunny 67 19.6 38 3.4 34 34 NNE 6 9 30 1016 10 16.0934 0 0
7:55 pm 19:55 Sunny 65 18.5 40 4.6 40 40 NNE 6 9 30 1016 10 16.0934 0 0
8:15 pm 20:15 Sunny 63 17.3 40 4.6 43 43 NE 6 9 30 1016 10 16.0934 0 0
8:35 pm 20:35 Sunny 60 15.4 43 6.1 54 54 NE 5 7 30.03 1017 10 16.0934 0 0
8:55 pm 20:55 Clear 61 16.3 38 3.6 43 43 ENE 5 7 30.03 1017 10 16.0934 0 0
9:15 pm 21:15 Clear 58 14.5 41 5.1 54 54 ENE 5 7 30.03 1017 10 16.0934 0 0
9:35 pm 21:35 Clear 57 13.9 41 5 55 55 E 3 6 30.03 1017 10 16.0934 0 0
9:55 pm 21:55 Clear 56 13.5 39 4 53 53 Calm 30.06 1018 10 16.0934 0 0
10:15 pm 22:15 Clear 55 12.9 40 4.4 57 57 Calm 30.09 1019 10 16.0934 0 0
10:35 pm 22:35 Clear 54 12.2 39 4.1 58 58 E 5 7 30.09 1019 10 16.0934 0 0
10:55 pm 22:55 Clear 55 12.9 38 3.6 53 53 Calm 30.09 1019 10 16.0934 0 0
11:15 pm 23:15 Clear 53 11.4 40 4.7 64 64 Calm 30.09 1019 10 16.0934 0 0
11:35 pm 23:35 Clear 52 11.2 41 5 66 66 Calm 30.09 1019 10 16.0934 0 0
11:55 pm 23:55 Clear 52 10.9 40 4.4 64 64 Calm 30.09 1019 10 16.0934 0 0

Powered by AerisWeather